This is the latest recevied weather packets stored in our database for station/object K1ZK-13. If no packets are shown the sender has not sent any weather packets the latest 10 day(s).
| Time | Temp. | Humidity | Pressure | Rain* | Wind** | Luminosity | Snow |
|---|---|---|---|---|---|---|---|
| 1777851275 | 9.44° C | 53% | 1008.8 hPa | 0 mm | - | 21 W/m² | - |
| 1777850971 | 9.44° C | 53% | 1008.8 hPa | 0 mm | - | 21 W/m² | - |
| 1777850063 | 10° C | 49% | 1008.8 hPa | 0 mm | - | 56 W/m² | - |
| 1777849760 | 10° C | 49% | 1008.7 hPa | 0 mm | - | 56 W/m² | - |
| 1777849456 | 10° C | 50% | 1008.7 hPa | 0 mm | - | 39 W/m² | - |
| 1777849154 | 10° C | 51% | 1008.6 hPa | 0 mm | - | 69 W/m² | - |
| 1777848850 | 10° C | 51% | 1008.7 hPa | 0 mm | - | 55 W/m² | - |
| 1777841886 | 10° C | 47% | 1008.6 hPa | 0 mm | - | 76 W/m² | - |
| 1777841583 | 10° C | 47% | 1008.8 hPa | 0 mm | - | 76 W/m² | - |
| 1777841280 | 10° C | 47% | 1008.8 hPa | 0 mm | - | 83 W/m² | - |
| 1777840978 | 10° C | 46% | 1008.7 hPa | 0 mm | - | 175 W/m² | - |
| 1777840674 | 10° C | 46% | 1008.7 hPa | 0 mm | - | 175 W/m² | - |
| 1777840372 | 9.44° C | 49% | 1008.8 hPa | 0 mm | - | 115 W/m² | - |
| 1777840069 | 9.44° C | 46% | 1008.7 hPa | 0 mm | - | 85 W/m² | - |
| 1777839767 | 9.44° C | 46% | 1008.8 hPa | 0 mm | - | 111 W/m² | - |
| 1777839161 | 10° C | 47% | 1008.8 hPa | 0 mm | - | 162 W/m² | - |
| 1777838858 | 10° C | 47% | 1008.9 hPa | 0 mm | - | 162 W/m² | - |
| 1777838554 | 10° C | 47% | 1008.9 hPa | 0 mm | - | 153 W/m² | - |
| 1777838251 | 10° C | 48% | 1009 hPa | 0 mm | - | 156 W/m² | - |
| 1777837948 | 10.56° C | 45% | 1009 hPa | 0 mm | - | 240 W/m² | - |
| 1777837646 | 10.56° C | 47% | 1009.2 hPa | 0 mm | - | 523 W/m² | - |
| 1777837341 | 10° C | 54% | 1009.1 hPa | 0 mm | - | 373 W/m² | - |
| 1777837038 | 10° C | 47% | 1009.2 hPa | 0 mm | - | 323 W/m² | - |
| 1777836734 | 10° C | 48% | 1009.4 hPa | 0 mm | - | 254 W/m² | - |
| 1777836430 | 9.44° C | 51% | 1009.4 hPa | 0 mm | - | 198 W/m² | - |
* Rain latest hour (hover to see other rain measurements)
** Current wind speed in m/s (hover to see current wind gust speed)